This demonstration page uses our WeatherBlox Daily Observations layout. Learn more.

Left ArrowRight Arrow

Hourly Observations for May 27, 2021

Temp ( °F °C ) Dew Point ( °F °C ) Humidity (%) Winds ( mph kmh ) Pressure ( in mb ) Visibility ( mi km ) Precip ( " mm )
12:53 am 00:53 Clear 76 24.4 68 20 77 77 SE 16 26 29.82 1010 10 16 0.00 0.00
1:53 am 01:53 Clear 75 23.9 68 20 79 79 SSE 16 26 29.82 1010 10 16 0.00 0.00
2:53 am 02:53 Clear 74 23.3 68 20 82 82 SSE 17 28 29.80 1009 10 16 0.00 0.00
3:53 am 03:53 Clear 73 22.8 67 19.4 81 81 SSE 16 26 29.79 1009 10 16 0.00 0.00
4:53 am 04:53 Clear 72 22.2 66 18.9 82 82 SSE 16 26 29.79 1009 10 16 0.00 0.00
5:53 am 05:53 Clear 72 22.2 66 18.9 82 82 SE 15 24 29.78 1009 10 16 0.00 0.00
6:53 am 06:53 Sunny 71 21.7 67 19.4 87 87 SSE 12 19 29.81 1010 10 16 0.00 0.00
7:53 am 07:53 Sunny 72 22.2 67 19.4 84 84 SSE 13 20 29.82 1010 9 14 0.00 0.00
8:53 am 08:53 Sunny 76 24.4 67 19.4 74 74 SSE 15 24 29.84 1011 10 16 0.00 0.00
9:53 am 09:53 Sunny 80 26.7 67 19.4 64 64 S 12 19 29.84 1011 10 16 0.00 0.00
10:53 am 10:53 Sunny 83 28.3 66 18.9 57 57 undefined N/A 29.84 1011 10 16 0.00 0.00
11:53 am 11:53 Sunny 87 30.6 62 16.7 43 43 WNW 7 11 29.83 1010 10 16 0.00 0.00
12:53 pm 12:53 Sunny 89 31.7 59 15 36 36 NE 5 7 29.83 1010 10 16 0.00 0.00
1:53 pm 13:53 Sunny 93 33.9 55 12.8 28 28 NE 12 19 29.80 1009 10 16 0.00 0.00
2:53 pm 14:53 Sunny 94 34.4 48 8.9 21 21 NNE 8 13 29.78 1009 10 16 0.00 0.00
3:53 pm 15:53 Sunny 96 35.6 41 5 15 15 ENE 9 15 29.76 1008 10 16 0.00 0.00
4:53 pm 16:53 Sunny 95 35 35 1.7 12 12 VRB 3 6 29.74 1007 10 16 0.00 0.00
5:53 pm 17:53 Sunny 97 36.1 36 2.2 12 12 NNE 7 11 29.71 1006 10 16 0.00 0.00
6:53 pm 18:53 Sunny 96 35.6 37 2.8 13 13 SE 8 13 29.71 1006 10 16 0.00 0.00
7:53 pm 19:53 Sunny 94 34.4 33 0.6 12 12 ESE 9 15 29.71 1006 10 16 0.00 0.00
8:53 pm 20:53 Clear 85 29.4 65 18.3 51 51 SSE 17 28 29.75 1007 10 16 0.00 0.00
9:53 pm 21:53 Clear 82 27.8 64 17.8 55 55 SSE 21 33 29.77 1008 10 16 0.00 0.00
10:53 pm 22:53 Clear 79 26.1 66 18.9 65 65 SE 15 24 29.80 1009 10 16 0.00 0.00
11:53 pm 23:53 Clear 77 25 64 17.8 64 64 SE 18 30 29.81 1010 10 16 0.00 0.00

Powered by AerisWeather